Bournemouth, United Kingdom

3:16 PM BST on October 18, 2017 (GMT +0100)
Bournemouth

Weather History for EGHH - November, 2012

Change the Weather History Date:

Saturday, November 3, 2012

  Actual Average Record
Temperature  
Mean Temperature 42 °F -  
Max Temperature 51 °F 51 °F 62 °F (1996)
Min Temperature 33 °F 38 °F 26 °F (2006)
Degree Days  
Heating Degree Days 23    
Moisture  
Dew Point 37 °F    
Average Humidity 78    
Maximum Humidity 96    
Minimum Humidity 47    
Precipitation  
Precipitation 0.00 in 0.11 in - ()
Sea Level Pressure  
Sea Level Pressure 29.44 in    
Wind  
Wind Speed 7 mph ()    
Max Wind Speed 18 mph    
Max Gust Speed 26 mph    
Visibility 6.6 miles    
Events Rain    
Averages and records for this station are not official NWS values.
T = Trace of Precipitation, MM = Missing Value Source: Averaged Metar Reports

Daily Weather History Graph

Daily Weather History Graph

Search for Another Location

Airport or City:

Trip Planner

Search our weather history database for the weather conditions in past years. The results will help you decide how hot, cold, wet, or windy it might be!

Date:

Astronomy

Nov. 03, 2012 Rise Set
Actual Time 7:02 AM GMT 4:38 PM GMT
Civil Twilight 6:28 AM GMT 5:12 PM GMT
Nautical Twilight 5:49 AM GMT 5:51 PM GMT
Astronomical Twilight 5:10 AM GMT 6:30 PM GMT
Moon 7:54 PM GMT (11/3) 11:09 AM GMT (11/3)
Length of Visible Light 10h 44m
Length of Day
9h 35m
Waning Gibbous, 82% of the Moon is Illuminated
Nov 3
Waning Gibbous
Nov 7
Last Quarter
Nov 13
New
Nov 20
First Quarter
Nov 28
Full

Hourly Weather History & Observations

Time (GMT) Temp. Windchill Dew Point Humidity Pressure Visibility Wind Dir Wind Speed Gust Speed Precip Events Conditions
2:50 AM 38 °F - 37 °F 96% 29.37 in 11 mi ESE 2.3 mph - -   Partly Cloudy
5:20 AM 37.4 °F - 35.6 °F 93% 29.33 in - West 1.2 mph - N/A   Clear
5:50 AM 38 °F - 36 °F 90% 29.35 in 12 mi South 2.3 mph - -  
5:50 AM 39.2 °F - 37.4 °F 93% 29.33 in 6.2 mi SSE 2.3 mph - N/A   Partly Cloudy
6:20 AM 37.4 °F - 35.6 °F 93% 29.33 in 6.2 mi South 2.3 mph - N/A   Mostly Cloudy
6:50 AM 41.0 °F 37.1 °F 39.2 °F 93% 29.36 in - SW 5.8 mph - N/A   Clear
7:20 AM 37.4 °F 32.8 °F 35.6 °F 93% 29.36 in - West 5.8 mph - N/A   Clear
7:50 AM 41.0 °F 36.4 °F 37.4 °F 87% 29.39 in - West 6.9 mph - N/A   Clear
8:20 AM 41.0 °F 37.1 °F 37.4 °F 87% 29.39 in 6.2 mi West 5.8 mph - N/A   Partly Cloudy
8:50 AM 45 °F - 39 °F 74% 29.41 in 19 mi West 10.4 mph - -  
8:50 AM 44.6 °F 39.2 °F 39.2 °F 81% 29.39 in 6.2 mi West 10.4 mph - N/A   Partly Cloudy
9:20 AM 46.4 °F 41.1 °F 41.0 °F 81% 29.42 in 6.2 mi West 11.5 mph - N/A   Partly Cloudy
9:50 AM 46.4 °F 40.1 °F 39.2 °F 76% 29.42 in 6.2 mi West 15.0 mph - N/A   Partly Cloudy
10:20 AM 48.2 °F - 39.2 °F 71% 29.42 in 6.2 mi West 17.3 mph - N/A   Partly Cloudy
10:50 AM 48.2 °F - 39.2 °F 71% 29.44 in 6.2 mi West 17.3 mph - N/A   Partly Cloudy
11:20 AM 50.0 °F - 37.4 °F 62% 29.44 in 6.2 mi West 17.3 mph - N/A   Partly Cloudy
11:50 AM 50 °F - 36 °F 47% 29.45 in 22 mi West 16.1 mph - -   Scattered Clouds
11:50 AM 50.0 °F - 37.4 °F 62% 29.44 in 6.2 mi West 17.3 mph - N/A   Partly Cloudy
12:20 PM 51.8 °F - 35.6 °F 54% 29.44 in 6.2 mi West 18.4 mph - N/A   Partly Cloudy
12:50 PM 50.0 °F - 35.6 °F 58% 29.44 in 6.2 mi West 12.7 mph - N/A   Partly Cloudy
1:20 PM 50.0 °F - 35.6 °F 58% 29.44 in 6.2 mi WSW 10.4 mph - N/A   Partly Cloudy
1:50 PM 50.0 °F - 37.4 °F 62% 29.44 in 6.2 mi WSW 11.5 mph - N/A   Partly Cloudy
2:20 PM 48.2 °F - 37.4 °F 66% 29.44 in 6.2 mi WSW 10.4 mph - N/A   Scattered Clouds
2:50 PM 48 °F - 38 °F 60% 29.47 in 15 mi WSW 8.1 mph - -   Overcast
2:50 PM 48.2 °F - 37.4 °F 66% 29.44 in 6.2 mi WSW 9.2 mph - N/A   Scattered Clouds
3:20 PM 48.2 °F - 37.4 °F 66% 29.47 in 6.2 mi WSW 9.2 mph - N/A   Scattered Clouds
3:50 PM 48.2 °F - 35.6 °F 62% 29.47 in 6.2 mi WSW 15.0 mph - N/A   Scattered Clouds
4:20 PM 46.4 °F 40.7 °F 33.8 °F 62% 29.50 in 6.2 mi SSW 12.7 mph 26.5 mph N/A Rain Light Rain Showers
4:50 PM 42.8 °F 36.6 °F 35.6 °F 76% 29.47 in 6.2 mi South 11.5 mph - N/A Rain Light Rain Showers
5:20 PM 42.8 °F 38.6 °F 35.6 °F 76% 29.50 in 6.2 mi SSW 6.9 mph - N/A   Scattered Clouds
5:50 PM 42 °F - 37 °F 76% 29.51 in 11 mi SSW 3.5 mph - - Rain Rain
5:50 PM 41.0 °F 39.0 °F 37.4 °F 87% 29.50 in 6.2 mi SW 3.5 mph - N/A   Scattered Clouds
6:20 PM 41.0 °F 37.1 °F 35.6 °F 81% 29.50 in 6.2 mi SSW 5.8 mph - N/A   Scattered Clouds
6:50 PM 41.0 °F 38.0 °F 37.4 °F 87% 29.50 in 6.2 mi SSW 4.6 mph - N/A   Scattered Clouds
7:20 PM 41.0 °F 38.0 °F 35.6 °F 81% 29.50 in 6.2 mi SSW 4.6 mph - N/A   Partly Cloudy
7:50 PM 42.8 °F 39.3 °F 37.4 °F 81% 29.50 in 6.2 mi SSW 5.8 mph - N/A   Partly Cloudy
8:20 PM 39.2 °F 35.9 °F 35.6 °F 87% 29.50 in 5.0 mi WSW 4.6 mph - N/A   Partly Cloudy
8:50 PM 40 °F - 36 °F 82% 29.52 in 4 mi SSW 2.3 mph - -   Light Haze
8:50 PM 39.2 °F - 35.6 °F 87% 29.50 in 3.7 mi SW 1.2 mph - N/A   Unknown
9:20 PM 35.6 °F - 33.8 °F 93% 29.50 in 2.8 mi South 1.2 mph - N/A   Mist
9:50 PM 35.6 °F - 33.8 °F 93% 29.50 in 2.2 mi SE 1.2 mph - N/A   Mist
10:20 PM 33.8 °F - 32.0 °F 93% 29.50 in 1.2 mi ENE 2.3 mph - N/A   Mist
11:50 PM 34 °F - 33 °F 96% 29.51 in 2 mi East 1.2 mph - -   Mist